Terug naar catalogus

SKYCRAFT 4B

ActiefWetenschapSSO
NORAD 64872·PAYLOAD·🇦🇺 Australia

Gelanceerd Jul 23, 2025 vanaf Vandenberg Space Force Base

Loading…

Volgende Passages (komende 24 uur)

TLE

VersSource: Space-Track

Epoch: Sep 14, 2026, 14:36 UTC

1 64872U 25154D   26257.60901249  .00004685  00000-0  39625-3 0  9998
2 64872  97.6592 320.6091 0004005 342.8155  17.2932 14.98521931 62437

Volg SKYCRAFT 4B in realtime met AllMySat

Download on the App Store